KNE505 OERK-OMDB

Flight info

Callsign KNE505
Flight time 1h 36m
Altitude 37000
Route RESAL T533 RAPMA DCT KUVSO DCT RIBOT M550 GOLGU M318 ATUDO/N0467F350 M318 RURAL Q317 LORID
Aircraft A320/M-SDE3FGHIRWY/LB1

Departure

Time 2026-04-25 04:12
Airport King Khalid International Airport (OERK)

Arrival

Time 2026-04-25 05:48
Airport Dubai International Airport (OMDB)
Time Latitude Longitude Altitude Speed Heading
2026-04-25 04:01 24.96063 46.70320 2077 ft 0 kts 309°
2026-04-25 04:02 24.96060 46.70325 2054 ft 4 kts 309°
2026-04-25 04:03 24.96042 46.70346 2078 ft 4 kts 319°
2026-04-25 04:03 24.96020 46.70362 2077 ft 4 kts 351°
2026-04-25 04:03 24.96004 46.70359 2077 ft 1 kts 59°
2026-04-25 04:03 24.96004 46.70358 2077 ft 0 kts 59°
2026-04-25 04:05 24.96022 46.70392 2077 ft 8 kts 59°
2026-04-25 04:05 24.96048 46.70441 2077 ft 7 kts 59°
2026-04-25 04:05 24.96076 46.70495 2077 ft 11 kts 57°
2026-04-25 04:06 24.96142 46.70517 2074 ft 10 kts 340°
2026-04-25 04:06 24.96228 46.70462 2076 ft 21 kts 328°
2026-04-25 04:06 24.96359 46.70381 2076 ft 22 kts 330°
2026-04-25 04:06 24.96498 46.70292 2076 ft 24 kts 330°
2026-04-25 04:07 24.96646 46.70199 2076 ft 25 kts 330°
2026-04-25 04:07 24.96800 46.70101 2076 ft 24 kts 330°
2026-04-25 04:07 24.96847 46.69980 2074 ft 20 kts 242°
2026-04-25 04:07 24.96774 46.69841 2076 ft 22 kts 240°
2026-04-25 04:08 24.96696 46.69693 2075 ft 23 kts 239°
2026-04-25 04:08 24.96614 46.69537 2073 ft 24 kts 240°
2026-04-25 04:08 24.96527 46.69373 2073 ft 25 kts 240°
2026-04-25 04:08 24.96437 46.69202 2076 ft 26 kts 240°
2026-04-25 04:09 24.96344 46.69026 2076 ft 27 kts 239°
2026-04-25 04:09 24.96249 46.68846 2072 ft 28 kts 239°
2026-04-25 04:09 24.96150 46.68660 2075 ft 28 kts 239°
2026-04-25 04:09 24.96086 46.68485 2074 ft 22 kts 290°
2026-04-25 04:10 24.96217 46.68386 2076 ft 24 kts 331°
2026-04-25 04:10 24.96364 46.68294 2076 ft 25 kts 330°
2026-04-25 04:10 24.96517 46.68197 2076 ft 26 kts 330°
2026-04-25 04:10 24.96637 46.68120 2074 ft 16 kts 326°
2026-04-25 04:11 24.96573 46.67886 2077 ft 19 kts 234°
2026-04-25 04:11 24.96429 46.67910 2075 ft 35 kts 150°
2026-04-25 04:11 24.96033 46.68161 2074 ft 101 kts 150°
2026-04-25 04:12 24.95241 46.68661 2076 ft 158 kts 150°
2026-04-25 04:12 24.94177 46.69332 2321 ft 184 kts 152°
2026-04-25 04:12 24.93072 46.70022 3124 ft 182 kts 150°
2026-04-25 04:12 24.91967 46.70699 3902 ft 189 kts 155°
2026-04-25 04:13 24.90691 46.71326 4403 ft 213 kts 160°
2026-04-25 04:13 24.89242 46.71974 4897 ft 236 kts 161°
2026-04-25 04:13 24.87675 46.72664 5626 ft 247 kts 162°
2026-04-25 04:13 24.86086 46.73372 6460 ft 253 kts 162°
2026-04-25 04:14 24.84438 46.74113 7263 ft 258 kts 162°
2026-04-25 04:14 24.82761 46.74869 8067 ft 264 kts 162°
2026-04-25 04:14 24.81041 46.75650 8837 ft 271 kts 162°
2026-04-25 04:14 24.79282 46.76455 9600 ft 277 kts 162°
2026-04-25 04:15 24.77475 46.77285 10232 ft 289 kts 162°
2026-04-25 04:15 24.75539 46.78166 10548 ft 314 kts 162°
2026-04-25 04:15 24.73445 46.79111 10826 ft 337 kts 162°
2026-04-25 04:15 24.71211 46.80126 11132 ft 355 kts 162°
2026-04-25 04:16 24.68910 46.81182 11764 ft 361 kts 162°
2026-04-25 04:16 24.66580 46.82257 12481 ft 365 kts 162°
2026-04-25 04:16 24.64222 46.83344 13206 ft 370 kts 162°
2026-04-25 04:16 24.61835 46.84439 13915 ft 374 kts 162°
2026-04-25 04:17 24.59422 46.85545 14559 ft 378 kts 162°
2026-04-25 04:17 24.56985 46.86662 15189 ft 381 kts 162°
2026-04-25 04:17 24.54537 46.87783 15889 ft 382 kts 162°
2026-04-25 04:17 24.52072 46.88908 16518 ft 385 kts 162°
2026-04-25 04:18 24.49582 46.90041 17095 ft 389 kts 163°
2026-04-25 04:18 24.47071 46.91180 17650 ft 393 kts 163°
2026-04-25 04:18 24.44529 46.92338 18200 ft 397 kts 163°
2026-04-25 04:18 24.41960 46.93509 18684 ft 402 kts 163°
2026-04-25 04:19 24.39368 46.94691 19147 ft 406 kts 163°
2026-04-25 04:19 24.36752 46.95883 19604 ft 409 kts 162°
2026-04-25 04:19 24.34131 46.97080 20074 ft 413 kts 162°
2026-04-25 04:19 24.31450 46.98306 20542 ft 416 kts 162°
2026-04-25 04:20 24.28765 46.99530 21004 ft 420 kts 162°
2026-04-25 04:20 24.26087 47.00742 21433 ft 423 kts 162°
2026-04-25 04:20 24.23354 47.01976 21874 ft 427 kts 162°
2026-04-25 04:20 24.20594 47.03224 22295 ft 431 kts 162°
2026-04-25 04:21 24.17814 47.04485 22708 ft 435 kts 162°
2026-04-25 04:21 24.15036 47.05845 23108 ft 441 kts 156°
2026-04-25 04:21 24.12443 47.07697 23498 ft 451 kts 146°
2026-04-25 04:21 24.10140 47.10070 23832 ft 460 kts 135°
2026-04-25 04:22 24.08222 47.12903 24149 ft 468 kts 126°
2026-04-25 04:22 24.07083 47.14915 24369 ft 470 kts 126°
2026-04-25 04:22 24.05355 47.17959 24707 ft 472 kts 126°
2026-04-25 04:22 24.03608 47.21021 25018 ft 476 kts 126°
2026-04-25 04:23 24.01847 47.24098 25353 ft 479 kts 126°
2026-04-25 04:23 24.00074 47.27194 25692 ft 481 kts 126°
2026-04-25 04:23 23.98290 47.30302 26026 ft 484 kts 126°
2026-04-25 04:23 23.96496 47.33419 26338 ft 486 kts 126°
2026-04-25 04:24 23.94689 47.36556 26652 ft 488 kts 126°
2026-04-25 04:24 23.92876 47.39705 26956 ft 491 kts 126°
2026-04-25 04:24 23.91056 47.42876 27229 ft 494 kts 126°
2026-04-25 04:24 23.89225 47.46067 27486 ft 496 kts 126°
2026-04-25 04:25 23.87385 47.49271 27802 ft 499 kts 126°
2026-04-25 04:25 23.85544 47.52482 28082 ft 501 kts 126°
2026-04-25 04:25 23.83688 47.55718 28370 ft 503 kts 126°
2026-04-25 04:25 23.81826 47.58961 28701 ft 504 kts 126°
2026-04-25 04:26 23.79966 47.62204 29091 ft 504 kts 126°
2026-04-25 04:26 23.78100 47.65445 29484 ft 504 kts 126°
2026-04-25 04:26 23.76233 47.68679 29893 ft 503 kts 127°
2026-04-25 04:26 23.74370 47.71908 30271 ft 503 kts 127°
2026-04-25 04:27 23.72507 47.75141 30632 ft 502 kts 127°
2026-04-25 04:27 23.70642 47.78357 31006 ft 500 kts 127°
2026-04-25 04:27 23.68807 47.81511 31408 ft 498 kts 127°
2026-04-25 04:27 23.66952 47.84704 31766 ft 498 kts 127°
2026-04-25 04:28 23.65103 47.87889 32135 ft 497 kts 127°
2026-04-25 04:28 23.63259 47.91074 32505 ft 496 kts 127°
2026-04-25 04:28 23.61427 47.94256 32889 ft 495 kts 127°
2026-04-25 04:28 23.59598 47.97430 33254 ft 494 kts 127°
2026-04-25 04:29 23.57771 48.00594 33627 ft 493 kts 127°
2026-04-25 04:29 23.55941 48.03747 33963 ft 492 kts 127°
2026-04-25 04:29 23.54102 48.06895 34259 ft 492 kts 127°
2026-04-25 04:29 23.52263 48.10046 34500 ft 494 kts 127°
2026-04-25 04:30 23.50416 48.13210 34728 ft 496 kts 127°
2026-04-25 04:30 23.48565 48.16384 34939 ft 498 kts 127°
2026-04-25 04:30 23.46705 48.19568 35155 ft 500 kts 127°
2026-04-25 04:30 23.44833 48.22765 35346 ft 501 kts 127°
2026-04-25 04:31 23.42952 48.25974 35519 ft 504 kts 127°
2026-04-25 04:31 23.41079 48.29217 35686 ft 508 kts 124°
2026-04-25 04:31 23.39539 48.32702 35901 ft 515 kts 114°
2026-04-25 04:31 23.38506 48.36455 36086 ft 521 kts 104°
2026-04-25 04:32 23.38007 48.40369 36264 ft 525 kts 94°
2026-04-25 04:32 23.37851 48.44341 36437 ft 527 kts 93°
2026-04-25 04:32 23.37689 48.48329 36646 ft 527 kts 93°
2026-04-25 04:32 23.37516 48.52320 36839 ft 529 kts 93°
2026-04-25 04:33 23.37341 48.56323 36989 ft 531 kts 93°
2026-04-25 04:33 23.37000 48.64363 37021 ft 532 kts 93°
2026-04-25 04:34 23.36665 48.72397 37021 ft 530 kts 93°
2026-04-25 04:34 23.36321 48.80411 37019 ft 530 kts 93°
2026-04-25 04:35 23.35982 48.88419 37003 ft 530 kts 92°
2026-04-25 04:35 23.35639 48.96378 37014 ft 530 kts 93°
2026-04-25 04:36 23.35287 49.04392 37016 ft 530 kts 93°
2026-04-25 04:36 23.34909 49.12412 37014 ft 530 kts 93°
2026-04-25 04:37 23.34477 49.20415 37023 ft 530 kts 94°
2026-04-25 04:37 23.34046 49.28415 37023 ft 529 kts 93°
2026-04-25 04:38 23.33631 49.36405 37030 ft 529 kts 93°
2026-04-25 04:38 23.33211 49.44396 37029 ft 529 kts 93°
2026-04-25 04:39 23.32790 49.52374 37022 ft 528 kts 94°
2026-04-25 04:39 23.32363 49.60356 37014 ft 528 kts 93°
2026-04-25 04:40 23.31929 49.68325 37020 ft 528 kts 93°
2026-04-25 04:40 23.31483 49.76293 37022 ft 527 kts 94°
2026-04-25 04:41 23.31027 49.84252 37021 ft 527 kts 94°
2026-04-25 04:41 23.30570 49.92208 37015 ft 527 kts 94°
2026-04-25 04:42 23.30128 50.00157 37019 ft 527 kts 93°
2026-04-25 04:42 23.29687 50.08108 37023 ft 526 kts 94°
2026-04-25 04:43 23.29232 50.16048 37022 ft 526 kts 94°
2026-04-25 04:43 23.28765 50.23983 37008 ft 526 kts 94°
2026-04-25 04:44 23.28297 50.31860 37016 ft 525 kts 94°
2026-04-25 04:44 23.27827 50.39783 37023 ft 525 kts 94°
2026-04-25 04:45 23.27352 50.47697 37022 ft 524 kts 94°
2026-04-25 04:45 23.26867 50.55612 37016 ft 524 kts 94°
2026-04-25 04:46 23.26386 50.63522 37015 ft 524 kts 94°
2026-04-25 04:46 23.25909 50.71432 37016 ft 524 kts 94°
2026-04-25 04:47 23.25423 50.79341 37020 ft 524 kts 94°
2026-04-25 04:47 23.24923 50.87247 37019 ft 524 kts 94°
2026-04-25 04:48 23.24422 50.95146 37011 ft 523 kts 94°
2026-04-25 04:48 23.23926 51.03036 37018 ft 523 kts 94°
2026-04-25 04:49 23.23429 51.10922 37020 ft 523 kts 94°
2026-04-25 04:49 23.22919 51.18799 37020 ft 522 kts 94°
2026-04-25 04:50 23.22408 51.26625 37020 ft 522 kts 94°
2026-04-25 04:50 23.21888 51.34500 37018 ft 522 kts 94°
2026-04-25 04:51 23.21365 51.42422 37023 ft 522 kts 94°
2026-04-25 04:51 23.20849 51.50233 37024 ft 522 kts 94°
2026-04-25 04:52 23.20329 51.58096 37023 ft 521 kts 94°
2026-04-25 04:52 23.19795 51.65957 37005 ft 522 kts 94°
2026-04-25 04:53 23.19258 51.73821 37010 ft 522 kts 94°
2026-04-25 04:53 23.18723 51.81688 37013 ft 522 kts 94°
2026-04-25 04:54 23.18180 51.89561 37018 ft 522 kts 94°
2026-04-25 04:54 23.17635 51.97430 37020 ft 522 kts 94°
2026-04-25 04:55 23.17084 52.05295 37019 ft 522 kts 94°
2026-04-25 04:55 23.16532 52.13155 37017 ft 521 kts 94°
2026-04-25 04:56 23.15976 52.21006 37018 ft 521 kts 94°
2026-04-25 04:56 23.15411 52.28856 37014 ft 521 kts 94°
2026-04-25 04:57 23.14902 52.36698 37012 ft 520 kts 89°
2026-04-25 04:57 23.15791 52.44437 37009 ft 514 kts 71°
2026-04-25 04:58 23.18129 52.51742 37006 ft 510 kts 62°
2026-04-25 04:58 23.21486 52.58470 37008 ft 506 kts 56°
2026-04-25 04:59 23.24932 52.65142 37004 ft 506 kts 56°
2026-04-25 04:59 23.28341 52.71779 37003 ft 506 kts 56°
2026-04-25 05:00 23.31779 52.78464 37004 ft 506 kts 56°
2026-04-25 05:00 23.35209 52.85144 37011 ft 505 kts 56°
2026-04-25 05:01 23.38624 52.91825 37012 ft 505 kts 56°
2026-04-25 05:01 23.42054 52.98497 37007 ft 504 kts 56°
2026-04-25 05:02 23.45573 53.05093 37010 ft 503 kts 55°
2026-04-25 05:02 23.49122 53.11649 37008 ft 502 kts 55°
2026-04-25 05:03 23.52650 53.18206 37004 ft 501 kts 55°
2026-04-25 05:03 23.56148 53.24784 37002 ft 501 kts 56°
2026-04-25 05:04 23.59631 53.31362 37004 ft 501 kts 56°
2026-04-25 05:04 23.63116 53.37935 37005 ft 500 kts 56°
2026-04-25 05:05 23.66597 53.44499 37001 ft 500 kts 56°
2026-04-25 05:05 23.70077 53.51063 36998 ft 500 kts 56°
2026-04-25 05:06 23.73568 53.57615 36997 ft 499 kts 55°
2026-04-25 05:06 23.77064 53.64171 37004 ft 499 kts 56°
2026-04-25 05:07 23.80529 53.70681 36998 ft 499 kts 56°
2026-04-25 05:07 23.84016 53.77244 37001 ft 499 kts 56°
2026-04-25 05:08 23.87490 53.83801 36997 ft 499 kts 56°
2026-04-25 05:08 23.90960 53.90357 36995 ft 498 kts 56°
2026-04-25 05:09 23.94429 53.96912 36987 ft 498 kts 56°
2026-04-25 05:09 23.97890 54.03460 36987 ft 498 kts 56°
2026-04-25 05:10 24.01342 54.10017 36982 ft 497 kts 56°
2026-04-25 05:10 24.04751 54.16602 36976 ft 497 kts 57°
2026-04-25 05:11 24.08143 54.23201 36979 ft 498 kts 57°
2026-04-25 05:11 24.11536 54.29802 36976 ft 497 kts 57°
2026-04-25 05:12 24.16060 54.38579 36970 ft 497 kts 57°
2026-04-25 05:12 24.19451 54.45174 36966 ft 497 kts 57°
2026-04-25 05:13 24.22918 54.51703 36966 ft 492 kts 47°
2026-04-25 05:13 24.25291 54.54304 36966 ft 477 kts 30°
2026-04-25 05:13 24.28159 54.55990 36969 ft 462 kts 12°
2026-04-25 05:14 24.31244 54.56700 36946 ft 447 kts 356°
2026-04-25 05:14 24.34290 54.56448 36931 ft 434 kts 342°
2026-04-25 05:15 24.43235 54.54616 36923 ft 439 kts 345°
2026-04-25 05:15 24.49276 54.53577 36927 ft 440 kts 345°
2026-04-25 05:16 24.55332 54.52522 36944 ft 441 kts 345°
2026-04-25 05:16 24.58330 54.52032 36492 ft 442 kts 346°
2026-04-25 05:16 24.61385 54.51541 35005 ft 448 kts 347°
2026-04-25 05:16 24.64499 54.51041 33371 ft 456 kts 347°
2026-04-25 05:17 24.67686 54.50641 31582 ft 468 kts 355°
2026-04-25 05:17 24.70965 54.50917 30140 ft 476 kts
2026-04-25 05:17 24.74091 54.51960 29567 ft 461 kts 20°
2026-04-25 05:17 24.76862 54.53532 29415 ft 437 kts 29°
2026-04-25 05:18 24.79354 54.55265 29288 ft 411 kts 29°
2026-04-25 05:18 24.81717 54.56930 28860 ft 396 kts 29°
2026-04-25 05:18 24.84006 54.58561 28221 ft 389 kts 30°
2026-04-25 05:18 24.86254 54.60173 27532 ft 383 kts 30°
2026-04-25 05:19 24.88472 54.61767 26836 ft 379 kts 30°
2026-04-25 05:19 24.90662 54.63345 26158 ft 374 kts 30°
2026-04-25 05:19 24.92833 54.64908 25497 ft 370 kts 30°
2026-04-25 05:19 24.94963 54.66480 24844 ft 367 kts 31°
2026-04-25 05:20 24.97046 54.68087 24201 ft 364 kts 32°
2026-04-25 05:20 24.99094 54.69703 23573 ft 361 kts 33°
2026-04-25 05:20 25.01120 54.71311 22859 ft 357 kts 33°
2026-04-25 05:20 25.03126 54.72905 22177 ft 353 kts 33°
2026-04-25 05:21 25.05112 54.74476 21537 ft 349 kts 33°
2026-04-25 05:21 25.07077 54.76026 20916 ft 345 kts 34°
2026-04-25 05:21 25.09024 54.77555 20315 ft 342 kts 34°
2026-04-25 05:21 25.10955 54.79065 19723 ft 339 kts 34°
2026-04-25 05:22 25.12869 54.80562 19152 ft 336 kts 34°
2026-04-25 05:22 25.14765 54.82048 18595 ft 333 kts 35°
2026-04-25 05:22 25.16616 54.83562 18029 ft 330 kts 38°
2026-04-25 05:22 25.18385 54.85155 17424 ft 327 kts 40°
2026-04-25 05:23 25.20101 54.86780 16853 ft 323 kts 40°
2026-04-25 05:23 25.21788 54.88395 16302 ft 319 kts 40°
2026-04-25 05:23 25.23457 54.89992 15766 ft 316 kts 40°
2026-04-25 05:23 25.25112 54.91563 15249 ft 312 kts 40°
2026-04-25 05:24 25.26755 54.93110 14742 ft 309 kts 40°
2026-04-25 05:24 25.28296 54.94735 14227 ft 305 kts 51°
2026-04-25 05:24 25.29417 54.96701 13738 ft 301 kts 65°
2026-04-25 05:24 25.30310 54.98789 13157 ft 299 kts 65°
2026-04-25 05:25 25.31194 55.00862 12584 ft 297 kts 65°
2026-04-25 05:25 25.32071 55.02923 12011 ft 296 kts 64°
2026-04-25 05:25 25.32946 55.04972 11452 ft 294 kts 64°
2026-04-25 05:25 25.33816 55.07004 10901 ft 292 kts 64°
2026-04-25 05:26 25.34680 55.09023 10391 ft 288 kts 64°
2026-04-25 05:26 25.35516 55.11009 10252 ft 286 kts 68°
2026-04-25 05:26 25.36004 55.13130 10085 ft 284 kts 85°
2026-04-25 05:26 25.36025 55.15308 9904 ft 283 kts 92°
2026-04-25 05:27 25.35974 55.17482 9703 ft 283 kts 92°
2026-04-25 05:27 25.35928 55.19653 9510 ft 282 kts 92°
2026-04-25 05:27 25.35885 55.21815 9326 ft 281 kts 92°
2026-04-25 05:27 25.35842 55.23976 9142 ft 280 kts 92°
2026-04-25 05:28 25.35797 55.26130 8958 ft 280 kts 91°
2026-04-25 05:28 25.35752 55.28279 8770 ft 280 kts 91°
2026-04-25 05:28 25.35709 55.30397 8639 ft 270 kts 91°
2026-04-25 05:28 25.35509 55.32407 8533 ft 258 kts 106°
2026-04-25 05:29 25.34816 55.34191 8378 ft 248 kts 123°
2026-04-25 05:29 25.33924 55.35770 8224 ft 244 kts 123°
2026-04-25 05:29 25.33037 55.37361 8069 ft 243 kts 122°
2026-04-25 05:29 25.32154 55.38949 7914 ft 241 kts 122°
2026-04-25 05:30 25.31270 55.40540 7760 ft 248 kts 123°
2026-04-25 05:30 25.30358 55.42175 7598 ft 251 kts 122°
2026-04-25 05:30 25.29442 55.43822 7428 ft 252 kts 122°
2026-04-25 05:30 25.28524 55.45468 7272 ft 251 kts 122°
2026-04-25 05:31 25.27610 55.47107 7101 ft 250 kts 122°
2026-04-25 05:31 25.26703 55.48738 6958 ft 248 kts 122°
2026-04-25 05:31 25.25802 55.50358 6864 ft 248 kts 122°
2026-04-25 05:31 25.24899 55.51981 6763 ft 248 kts 122°
2026-04-25 05:32 25.23996 55.53604 6667 ft 248 kts 122°
2026-04-25 05:32 25.23090 55.55228 6560 ft 249 kts 122°
2026-04-25 05:32 25.22185 55.56853 6449 ft 248 kts 122°
2026-04-25 05:32 25.21281 55.58477 6355 ft 248 kts 122°
2026-04-25 05:33 25.20379 55.60100 6247 ft 248 kts 122°
2026-04-25 05:33 25.19479 55.61718 6136 ft 247 kts 122°
2026-04-25 05:33 25.18579 55.63336 6040 ft 247 kts 122°
2026-04-25 05:33 25.17680 55.64951 5939 ft 246 kts 122°
2026-04-25 05:34 25.16783 55.66558 5838 ft 246 kts 122°
2026-04-25 05:34 25.15888 55.68163 5737 ft 246 kts 122°
2026-04-25 05:34 25.14994 55.69766 5633 ft 245 kts 122°
2026-04-25 05:34 25.14101 55.71368 5534 ft 245 kts 122°
2026-04-25 05:35 25.13208 55.72966 5436 ft 244 kts 121°
2026-04-25 05:35 25.12316 55.74561 5344 ft 244 kts 121°
2026-04-25 05:35 25.11426 55.76150 5236 ft 244 kts 122°
2026-04-25 05:35 25.10537 55.77741 5130 ft 243 kts 121°
2026-04-25 05:36 25.09654 55.79323 5039 ft 241 kts 122°
2026-04-25 05:36 25.08789 55.80871 4941 ft 240 kts 122°
2026-04-25 05:36 25.07911 55.82441 4817 ft 240 kts 122°
2026-04-25 05:36 25.07032 55.84004 4714 ft 239 kts 123°
2026-04-25 05:37 25.05864 55.85270 4606 ft 237 kts 156°
2026-04-25 05:37 25.04271 55.85457 4502 ft 233 kts 197°
2026-04-25 05:37 25.02794 55.84748 4402 ft 232 kts 211°
2026-04-25 05:37 25.01425 55.83805 4285 ft 232 kts 218°
2026-04-25 05:38 25.00491 55.82424 4165 ft 226 kts 257°
2026-04-25 05:38 25.00602 55.80747 4086 ft 223 kts 295°
2026-04-25 05:38 25.01376 55.79265 3993 ft 224 kts 302°
2026-04-25 05:38 25.02200 55.77802 3893 ft 225 kts 303°
2026-04-25 05:39 25.03031 55.76343 3792 ft 225 kts 303°
2026-04-25 05:39 25.03860 55.74882 3700 ft 225 kts 302°
2026-04-25 05:39 25.04684 55.73424 3602 ft 224 kts 302°
2026-04-25 05:39 25.05503 55.71966 3504 ft 223 kts 302°
2026-04-25 05:40 25.06318 55.70508 3412 ft 223 kts 302°
2026-04-25 05:40 25.07133 55.69049 3320 ft 224 kts 302°
2026-04-25 05:40 25.07948 55.67589 3228 ft 223 kts 302°
2026-04-25 05:40 25.08758 55.66138 3134 ft 221 kts 302°
2026-04-25 05:41 25.09563 55.64696 3036 ft 221 kts 302°
2026-04-25 05:41 25.10364 55.63261 2949 ft 217 kts 302°
2026-04-25 05:41 25.11135 55.61878 2852 ft 206 kts 302°
2026-04-25 05:41 25.11869 55.60561 2775 ft 196 kts 302°
2026-04-25 05:42 25.12559 55.59323 2711 ft 182 kts 303°
2026-04-25 05:42 25.13190 55.58189 2626 ft 166 kts 303°
2026-04-25 05:42 25.13770 55.57148 2551 ft 154 kts 302°
2026-04-25 05:42 25.14315 55.56171 2486 ft 146 kts 302°
2026-04-25 05:43 25.14843 55.55224 2430 ft 144 kts 303°
2026-04-25 05:43 25.15362 55.54292 2374 ft 142 kts 303°
2026-04-25 05:43 25.15877 55.53367 2332 ft 139 kts 302°
2026-04-25 05:43 25.16377 55.52468 2261 ft 136 kts 302°
2026-04-25 05:44 25.16870 55.51583 2200 ft 135 kts 303°
2026-04-25 05:44 25.17363 55.50698 2152 ft 136 kts 303°
2026-04-25 05:44 25.17861 55.49803 2047 ft 136 kts 303°
2026-04-25 05:44 25.18353 55.48917 1907 ft 135 kts 303°
2026-04-25 05:45 25.18837 55.48047 1754 ft 134 kts 303°
2026-04-25 05:45 25.19325 55.47169 1598 ft 134 kts 303°
2026-04-25 05:45 25.19810 55.46297 1424 ft 133 kts 302°
2026-04-25 05:45 25.20295 55.45424 1255 ft 134 kts 302°
2026-04-25 05:46 25.20778 55.44555 1083 ft 131 kts 301°
2026-04-25 05:46 25.21256 55.43695 897 ft 133 kts 302°
2026-04-25 05:46 25.21735 55.42831 781 ft 134 kts 301°
2026-04-25 05:46 25.22223 55.41952 614 ft 135 kts 302°
2026-04-25 05:47 25.22711 55.41072 421 ft 135 kts 302°
2026-04-25 05:47 25.23203 55.40189 238 ft 135 kts 302°
2026-04-25 05:47 25.23689 55.39301 52 ft 133 kts 303°
2026-04-25 05:47 25.24137 55.38502 23 ft 104 kts 301°
2026-04-25 05:48 25.24437 55.37961 24 ft 70 kts 301°
2026-04-25 05:48 25.24667 55.37546 22 ft 53 kts 301°
2026-04-25 05:48 25.24780 55.37260 22 ft 24 kts 259°
2026-04-25 05:48 25.24776 55.37078 22 ft 25 kts 277°
2026-04-25 05:49 25.24821 55.36904 22 ft 24 kts 297°
2026-04-25 05:49 25.24876 55.36722 22 ft 26 kts 285°
2026-04-25 05:49 25.24955 55.36555 22 ft 18 kts 301°
2026-04-25 05:49 25.24969 55.36457 22 ft 11 kts 233°
2026-04-25 05:50 25.24907 55.36415 22 ft 10 kts 211°
2026-04-25 05:50 25.24850 55.36377 22 ft 8 kts 211°
2026-04-25 05:50 25.24830 55.36363 24 ft 2 kts 210°
2026-04-25 05:50 25.24829 55.36363 24 ft 0 kts 210°